Time,TemperatureF,DewpointF,PressureIn,WindDirection,WindDirectionDegrees,WindSpeedMPH,WindSpeedGustMPH,Humidity,HourlyPrecipIn,Conditions,Clouds,dailyrainin,SoftwareType,DateUTC
2013-01-06 00:00:00,40.2,31.2,30.27,SW,218,0.0,0.0,70,0.00,,,0.00,Wunderground v.1.15,2013-01-06 05:00:00,
2013-01-06 00:10:00,40.4,30.7,30.27,SW,218,0.0,0.0,68,0.00,,,0.00,Wunderground v.1.15,2013-01-06 05:10:00,
2013-01-06 00:20:00,40.4,31.0,30.26,SW,218,0.0,0.0,69,0.00,,,0.00,Wunderground v.1.15,2013-01-06 05:20:00,
2013-01-06 00:25:00,40.5,31.5,30.25,SW,218,0.0,0.0,70,0.00,,,0.00,Wunderground v.1.15,2013-01-06 05:25:00,
2013-01-06 00:30:00,40.6,30.9,30.25,SW,218,0.0,0.0,68,0.00,,,0.00,Wunderground v.1.15,2013-01-06 05:30:00,
2013-01-06 00:35:00,40.7,30.6,30.24,SW,218,0.0,0.0,67,0.00,,,0.00,Wunderground v.1.15,2013-01-06 05:35:00,
2013-01-06 00:40:00,40.9,30.4,30.25,WSW,244,0.0,0.0,66,0.00,,,0.00,Wunderground v.1.15,2013-01-06 05:40:00,
2013-01-06 00:45:00,40.9,30.4,30.24,WSW,244,0.0,0.0,66,0.00,,,0.00,Wunderground v.1.15,2013-01-06 05:45:00,
2013-01-06 00:50:00,41.0,30.5,30.24,WSW,244,0.0,0.0,66,0.00,,,0.00,Wunderground v.1.15,2013-01-06 05:50:00,
2013-01-06 00:55:00,41.0,30.5,30.23,WSW,244,0.0,0.0,66,0.00,,,0.00,Wunderground v.1.15,2013-01-06 05:55:00,
2013-01-06 01:00:00,41.0,30.5,30.23,WSW,244,0.0,0.0,66,0.00,,,0.00,Wunderground v.1.15,2013-01-06 06:00:00,
2013-01-06 01:05:00,41.0,31.2,30.23,WSW,244,0.0,0.0,68,0.00,,,0.00,Wunderground v.1.15,2013-01-06 06:05:00,
2013-01-06 01:10:00,41.0,32.3,30.23,WSW,244,0.0,0.0,71,0.00,,,0.00,Wunderground v.1.15,2013-01-06 06:10:00,
2013-01-06 01:15:00,40.9,31.1,30.23,WSW,244,0.0,0.0,68,0.00,,,0.00,Wunderground v.1.15,2013-01-06 06:15:00,
2013-01-06 01:20:00,40.9,31.5,30.23,WSW,244,0.0,0.0,69,0.00,,,0.00,Wunderground v.1.15,2013-01-06 06:20:00,
2013-01-06 01:25:00,40.9,31.5,30.23,WSW,244,0.0,0.0,69,0.00,,,0.00,Wunderground v.1.15,2013-01-06 06:25:00,
2013-01-06 01:30:00,40.9,31.5,30.24,WSW,244,0.0,0.0,69,0.00,,,0.00,Wunderground v.1.15,2013-01-06 06:30:00,
2013-01-06 01:40:00,40.9,31.9,30.25,WSW,244,0.0,0.0,70,0.00,,,0.00,Wunderground v.1.15,2013-01-06 06:40:00,
2013-01-06 01:45:00,40.9,32.6,30.25,WSW,244,0.0,0.0,72,0.00,,,0.00,Wunderground v.1.15,2013-01-06 06:45:00,
2013-01-06 01:50:00,40.9,31.9,30.25,WSW,244,0.0,0.0,70,0.00,,,0.00,Wunderground v.1.15,2013-01-06 06:50:00,
2013-01-06 01:55:00,40.9,32.2,30.25,WSW,244,0.0,0.0,71,0.00,,,0.00,Wunderground v.1.15,2013-01-06 06:55:00,
2013-01-06 02:00:00,40.8,32.5,30.25,WSW,244,0.0,0.0,72,0.00,,,0.00,Wunderground v.1.15,2013-01-06 07:00:00,
2013-01-06 02:05:00,40.7,32.4,30.25,WSW,244,0.0,0.0,72,0.00,,,0.00,Wunderground v.1.15,2013-01-06 07:05:00,
2013-01-06 02:10:00,40.7,32.7,30.25,WSW,244,0.0,0.0,73,0.00,,,0.00,Wunderground v.1.15,2013-01-06 07:10:00,
2013-01-06 02:20:00,40.5,33.2,30.25,WSW,244,0.0,0.0,75,0.00,,,0.00,Wunderground v.1.15,2013-01-06 07:20:00,
2013-01-06 02:25:00,40.5,33.2,30.25,WSW,244,0.0,0.0,75,0.00,,,0.00,Wunderground v.1.15,2013-01-06 07:25:00,
2013-01-06 02:30:00,40.5,32.9,30.25,WSW,244,0.0,0.0,74,0.00,,,0.00,Wunderground v.1.15,2013-01-06 07:30:00,
2013-01-06 02:35:00,40.4,33.1,30.26,WSW,244,0.0,0.0,75,0.00,,,0.00,Wunderground v.1.15,2013-01-06 07:35:00,
2013-01-06 02:40:00,40.5,33.2,30.26,WSW,244,0.0,0.0,75,0.00,,,0.00,Wunderground v.1.15,2013-01-06 07:40:00,
2013-01-06 02:45:00,40.5,33.5,30.26,WSW,244,0.0,0.0,76,0.00,,,0.00,Wunderground v.1.15,2013-01-06 07:45:00,
2013-01-06 02:50:00,40.4,34.1,30.25,WSW,244,0.0,0.0,78,0.00,,,0.00,Wunderground v.1.15,2013-01-06 07:50:00,
2013-01-06 03:00:00,40.2,34.8,30.25,WSW,244,0.0,0.0,81,0.00,,,0.00,Wunderground v.1.15,2013-01-06 08:00:00,
2013-01-06 03:05:00,40.0,34.9,30.25,WSW,244,0.0,0.0,82,0.00,,,0.00,Wunderground v.1.15,2013-01-06 08:05:00,
2013-01-06 03:10:00,39.7,34.7,30.25,WSW,244,0.0,0.0,82,0.00,,,0.00,Wunderground v.1.15,2013-01-06 08:10:00,
2013-01-06 03:20:00,39.5,35.1,30.25,WSW,244,0.0,0.0,84,0.00,,,0.00,Wunderground v.1.15,2013-01-06 08:20:00,
2013-01-06 03:25:00,39.4,35.0,30.25,WSW,244,0.0,0.0,84,0.00,,,0.00,Wunderground v.1.15,2013-01-06 08:25:00,
2013-01-06 03:30:00,39.3,34.9,30.24,WSW,244,0.0,0.0,84,0.00,,,0.00,Wunderground v.1.15,2013-01-06 08:30:00,
2013-01-06 03:35:00,39.3,35.2,30.24,WSW,244,0.0,0.0,85,0.00,,,0.00,Wunderground v.1.15,2013-01-06 08:35:00,
2013-01-06 03:40:00,39.2,35.1,30.23,WSW,244,0.0,0.0,85,0.00,,,0.00,Wunderground v.1.15,2013-01-06 08:40:00,
2013-01-06 03:45:00,39.2,35.4,30.23,WSW,244,0.0,0.0,86,0.00,,,0.00,Wunderground v.1.15,2013-01-06 08:45:00,
2013-01-06 03:50:00,39.2,35.1,30.23,WSW,244,0.0,0.0,85,0.00,,,0.00,Wunderground v.1.15,2013-01-06 08:50:00,
2013-01-06 03:55:00,39.2,35.4,30.24,WSW,244,0.0,0.0,86,0.00,,,0.00,Wunderground v.1.15,2013-01-06 08:55:00,
2013-01-06 04:00:00,39.2,35.1,30.24,WSW,244,0.0,0.0,85,0.00,,,0.00,Wunderground v.1.15,2013-01-06 09:00:00,
2013-01-06 04:05:00,39.3,34.9,30.23,WSW,244,0.0,0.0,84,0.00,,,0.00,Wunderground v.1.15,2013-01-06 09:05:00,
2013-01-06 04:10:00,39.3,34.6,30.22,WSW,244,0.0,0.0,83,0.00,,,0.00,Wunderground v.1.15,2013-01-06 09:10:00,
2013-01-06 04:15:00,39.5,34.5,30.22,WSW,244,0.0,0.0,82,0.00,,,0.00,Wunderground v.1.15,2013-01-06 09:15:00,
2013-01-06 04:20:00,39.6,34.6,30.22,WSW,244,0.0,0.0,82,0.00,,,0.00,Wunderground v.1.15,2013-01-06 09:20:00,
2013-01-06 04:25:00,39.7,34.3,30.21,WSW,244,0.0,0.0,81,0.00,,,0.00,Wunderground v.1.15,2013-01-06 09:25:00,
2013-01-06 04:30:00,39.8,34.4,30.21,WSW,244,0.0,0.0,81,0.00,,,0.00,Wunderground v.1.15,2013-01-06 09:30:00,
2013-01-06 04:35:00,39.9,34.9,30.20,WSW,244,0.0,0.0,82,0.00,,,0.00,Wunderground v.1.15,2013-01-06 09:35:00,
2013-01-06 04:40:00,39.9,34.9,30.20,WSW,244,0.0,0.0,82,0.00,,,0.00,Wunderground v.1.15,2013-01-06 09:40:00,
2013-01-06 04:45:00,39.9,34.9,30.19,WSW,244,0.0,0.0,82,0.00,,,0.00,Wunderground v.1.15,2013-01-06 09:45:00,
2013-01-06 04:50:00,40.0,35.3,30.19,WSW,244,0.0,0.0,83,0.00,,,0.00,Wunderground v.1.15,2013-01-06 09:50:00,
2013-01-06 04:55:00,39.9,35.8,30.20,WSW,244,0.0,0.0,85,0.00,,,0.00,Wunderground v.1.15,2013-01-06 09:55:00,
2013-01-06 05:00:00,39.8,35.7,30.20,WSW,244,0.0,0.0,85,0.00,,,0.00,Wunderground v.1.15,2013-01-06 10:00:00,
2013-01-06 05:05:00,39.7,35.6,30.20,WSW,244,0.0,0.0,85,0.00,,,0.00,Wunderground v.1.15,2013-01-06 10:05:00,
2013-01-06 05:10:00,39.6,35.5,30.20,WSW,244,0.0,0.0,85,0.00,,,0.00,Wunderground v.1.15,2013-01-06 10:10:00,
2013-01-06 05:15:00,39.6,35.5,30.20,WSW,244,0.0,0.0,85,0.00,,,0.00,Wunderground v.1.15,2013-01-06 10:15:00,
2013-01-06 05:20:00,39.5,35.7,30.20,WSW,244,0.0,0.0,86,0.00,,,0.00,Wunderground v.1.15,2013-01-06 10:20:00,
2013-01-06 05:30:00,39.5,35.7,30.19,WSW,244,0.0,0.0,86,0.00,,,0.00,Wunderground v.1.15,2013-01-06 10:30:00,
2013-01-06 05:40:00,39.5,35.7,30.19,WSW,244,0.0,0.0,86,0.00,,,0.00,Wunderground v.1.15,2013-01-06 10:40:00,
2013-01-06 05:50:00,39.5,35.7,30.18,WSW,244,0.0,0.0,86,0.00,,,0.00,Wunderground v.1.15,2013-01-06 10:50:00,
2013-01-06 05:55:00,39.5,35.7,30.18,WSW,244,0.0,0.0,86,0.00,,,0.00,Wunderground v.1.15,2013-01-06 10:55:00,
2013-01-06 06:00:00,39.4,35.0,30.19,WSW,244,0.0,0.0,84,0.00,,,0.00,Wunderground v.1.15,2013-01-06 11:00:00,
2013-01-06 06:05:00,39.4,35.6,30.19,WSW,244,0.0,0.0,86,0.00,,,0.00,Wunderground v.1.15,2013-01-06 11:05:00,
2013-01-06 06:10:00,39.4,35.9,30.20,WSW,244,0.0,0.0,87,0.00,,,0.00,Wunderground v.1.15,2013-01-06 11:10:00,
2013-01-06 06:15:00,39.4,35.9,30.20,WSW,244,0.0,0.0,87,0.00,,,0.00,Wunderground v.1.15,2013-01-06 11:15:00,
2013-01-06 06:20:00,39.3,35.5,30.21,WSW,244,0.0,0.0,86,0.00,,,0.00,Wunderground v.1.15,2013-01-06 11:20:00,
2013-01-06 06:25:00,39.2,35.4,30.21,WSW,244,0.0,0.0,86,0.00,,,0.00,Wunderground v.1.15,2013-01-06 11:25:00,
2013-01-06 06:30:00,39.1,35.3,30.21,WSW,244,0.0,0.0,86,0.00,,,0.00,Wunderground v.1.15,2013-01-06 11:30:00,
2013-01-06 06:40:00,38.9,35.1,30.21,WSW,244,0.0,0.0,86,0.00,,,0.00,Wunderground v.1.15,2013-01-06 11:40:00,
2013-01-06 06:45:00,38.8,34.7,30.20,WSW,244,0.0,0.0,85,0.00,,,0.00,Wunderground v.1.15,2013-01-06 11:45:00,
2013-01-06 06:50:00,38.7,34.9,30.21,WSW,244,0.0,0.0,86,0.00,,,0.00,Wunderground v.1.15,2013-01-06 11:50:00,
2013-01-06 06:55:00,38.6,34.8,30.20,WSW,244,0.0,0.0,86,0.00,,,0.00,Wunderground v.1.15,2013-01-06 11:55:00,
2013-01-06 07:00:00,38.5,34.7,30.21,WSW,244,0.0,0.0,86,0.00,,,0.00,Wunderground v.1.15,2013-01-06 12:00:00,
2013-01-06 07:10:00,38.2,34.4,30.21,WSW,244,0.0,0.0,86,0.00,,,0.00,Wunderground v.1.15,2013-01-06 12:10:00,
2013-01-06 07:15:00,38.2,34.7,30.20,WSW,244,0.0,0.0,87,0.00,,,0.00,Wunderground v.1.15,2013-01-06 12:15:00,
2013-01-06 07:20:00,38.1,34.6,30.20,WSW,244,0.0,0.0,87,0.00,,,0.00,Wunderground v.1.15,2013-01-06 12:20:00,
2013-01-06 07:25:00,38.0,34.5,30.20,WSW,244,0.0,0.0,87,0.00,,,0.00,Wunderground v.1.15,2013-01-06 12:25:00,
2013-01-06 07:30:00,38.0,34.8,30.20,WSW,244,0.0,0.0,88,0.00,,,0.00,Wunderground v.1.15,2013-01-06 12:30:00,
2013-01-06 07:35:00,38.0,34.8,30.20,WSW,244,0.0,0.0,88,0.00,,,0.00,Wunderground v.1.15,2013-01-06 12:35:00,
2013-01-06 07:40:00,38.1,35.1,30.21,WSW,244,0.0,0.0,89,0.00,,,0.00,Wunderground v.1.15,2013-01-06 12:40:00,
2013-01-06 07:50:00,38.2,35.2,30.21,WSW,244,0.0,0.0,89,0.00,,,0.00,Wunderground v.1.15,2013-01-06 12:50:00,
2013-01-06 07:55:00,38.3,35.6,30.21,WSW,244,0.0,0.0,90,0.00,,,0.00,Wunderground v.1.15,2013-01-06 12:55:00,
2013-01-06 08:00:00,38.4,35.7,30.20,WSW,244,0.0,0.0,90,0.00,,,0.00,Wunderground v.1.15,2013-01-06 13:00:00,
2013-01-06 08:05:00,38.5,35.5,30.20,WSW,244,0.0,0.0,89,0.00,,,0.00,Wunderground v.1.15,2013-01-06 13:05:00,
2013-01-06 08:10:00,38.6,35.9,30.20,WSW,244,0.0,0.0,90,0.00,,,0.00,Wunderground v.1.15,2013-01-06 13:10:00,
2013-01-06 08:20:00,38.9,36.2,30.20,WSW,244,0.0,0.0,90,0.00,,,0.00,Wunderground v.1.15,2013-01-06 13:20:00,
2013-01-06 08:30:00,39.3,36.0,30.21,WSW,244,0.0,0.0,88,0.00,,,0.00,Wunderground v.1.15,2013-01-06 13:30:00,
2013-01-06 08:35:00,39.5,36.2,30.21,WSW,244,0.0,0.0,88,0.00,,,0.00,Wunderground v.1.15,2013-01-06 13:35:00,
2013-01-06 08:40:00,39.7,35.9,30.21,WSW,244,0.0,0.0,86,0.00,,,0.00,Wunderground v.1.15,2013-01-06 13:40:00,
2013-01-06 08:45:00,39.8,36.0,30.21,WSW,244,0.0,0.0,86,0.00,,,0.00,Wunderground v.1.15,2013-01-06 13:45:00,
2013-01-06 08:50:00,40.0,36.2,30.21,WSW,244,0.0,0.0,86,0.00,,,0.00,Wunderground v.1.15,2013-01-06 13:50:00,
2013-01-06 08:55:00,40.1,36.0,30.21,WSW,244,0.0,0.0,85,0.00,,,0.00,Wunderground v.1.15,2013-01-06 13:55:00,
2013-01-06 09:00:00,40.3,36.4,30.21,WSW,244,0.0,0.0,86,0.00,,,0.00,Wunderground v.1.15,2013-01-06 14:00:00,
2013-01-06 09:05:00,40.5,36.0,30.21,WSW,244,0.0,0.0,84,0.00,,,0.00,Wunderground v.1.15,2013-01-06 14:05:00,
2013-01-06 09:10:00,40.8,36.3,30.21,WSW,244,0.0,0.0,84,0.00,,,0.00,Wunderground v.1.15,2013-01-06 14:10:00,
2013-01-06 09:15:00,41.1,36.6,30.21,WSW,244,0.0,0.0,84,0.00,,,0.00,Wunderground v.1.15,2013-01-06 14:15:00,
2013-01-06 09:20:00,41.4,36.6,30.22,WSW,244,0.0,0.0,83,0.00,,,0.00,Wunderground v.1.15,2013-01-06 14:20:00,
2013-01-06 09:30:00,41.9,36.5,30.22,SSW,205,0.0,0.0,81,0.00,,,0.00,Wunderground v.1.15,2013-01-06 14:30:00,
2013-01-06 09:35:00,42.2,36.5,30.22,SSW,205,0.0,0.0,80,0.00,,,0.00,Wunderground v.1.15,2013-01-06 14:35:00,
2013-01-06 09:40:00,42.4,37.0,30.22,SSW,205,0.0,0.0,81,0.00,,,0.00,Wunderground v.1.15,2013-01-06 14:40:00,
2013-01-06 09:45:00,42.5,36.4,30.21,SSW,205,0.0,0.0,79,0.00,,,0.00,Wunderground v.1.15,2013-01-06 14:45:00,
2013-01-06 09:50:00,42.7,36.6,30.21,SSW,205,0.0,0.0,79,0.00,,,0.00,Wunderground v.1.15,2013-01-06 14:50:00,
2013-01-06 09:55:00,42.9,37.2,30.22,SSW,205,0.0,0.0,80,0.00,,,0.00,Wunderground v.1.15,2013-01-06 14:55:00,
2013-01-06 10:00:00,43.1,37.0,30.22,SSW,205,0.0,0.0,79,0.00,,,0.00,Wunderground v.1.15,2013-01-06 15:00:00,
2013-01-06 10:10:00,43.6,37.2,30.22,SSW,205,0.0,0.0,78,0.00,,,0.00,Wunderground v.1.15,2013-01-06 15:10:00,
2013-01-06 10:20:00,44.0,36.9,30.22,SSW,207,0.0,0.0,76,0.00,,,0.00,Wunderground v.1.15,2013-01-06 15:20:00,
2013-01-06 10:30:00,44.3,36.9,30.22,SW,225,0.0,0.0,75,0.00,,,0.00,Wunderground v.1.15,2013-01-06 15:30:00,
2013-01-06 10:40:00,44.5,36.4,30.21,NNW,340,0.0,0.0,73,0.00,,,0.00,Wunderground v.1.15,2013-01-06 15:40:00,
2013-01-06 10:50:00,44.5,36.7,30.21,NNW,340,0.0,0.0,74,0.00,,,0.00,Wunderground v.1.15,2013-01-06 15:50:00,
2013-01-06 10:55:00,44.5,37.1,30.21,NNW,340,0.0,0.0,75,0.00,,,0.00,Wunderground v.1.15,2013-01-06 15:55:00,
2013-01-06 11:00:00,44.6,36.8,30.20,NNW,340,0.0,0.0,74,0.00,,,0.00,Wunderground v.1.15,2013-01-06 16:00:00,
2013-01-06 11:05:00,44.7,36.6,30.20,NNW,340,0.0,0.0,73,0.00,,,0.00,Wunderground v.1.15,2013-01-06 16:05:00,
2013-01-06 11:10:00,44.8,37.0,30.20,NNW,340,0.0,0.0,74,0.00,,,0.00,Wunderground v.1.15,2013-01-06 16:10:00,
2013-01-06 11:15:00,44.8,37.0,30.20,NNW,340,0.0,0.0,74,0.00,,,0.00,Wunderground v.1.15,2013-01-06 16:15:00,
2013-01-06 11:20:00,44.9,37.1,30.20,NNW,340,0.0,0.0,74,0.00,,,0.00,Wunderground v.1.15,2013-01-06 16:20:00,
2013-01-06 11:30:00,45.1,36.6,30.19,NNW,340,0.0,0.0,72,0.00,,,0.00,Wunderground v.1.15,2013-01-06 16:30:00,
2013-01-06 11:40:00,45.4,36.9,30.18,North,5,0.0,0.0,72,0.00,,,0.00,Wunderground v.1.15,2013-01-06 16:40:00,
2013-01-06 11:45:00,45.6,36.7,30.18,WNW,283,0.0,0.0,71,0.00,,,0.00,Wunderground v.1.15,2013-01-06 16:45:00,
2013-01-06 11:50:00,45.9,37.0,30.17,WSW,254,0.0,0.0,71,0.00,,,0.00,Wunderground v.1.15,2013-01-06 16:50:00,
2013-01-06 11:55:00,46.1,36.9,30.17,SSW,198,0.0,0.0,70,0.00,,,0.00,Wunderground v.1.15,2013-01-06 16:55:00,
2013-01-06 12:00:00,46.4,37.1,30.17,SSW,198,0.0,0.0,70,0.00,,,0.00,Wunderground v.1.15,2013-01-06 17:00:00,
2013-01-06 12:05:00,46.7,37.4,30.16,SSW,198,0.0,0.0,70,0.00,,,0.00,Wunderground v.1.15,2013-01-06 17:05:00,
2013-01-06 12:10:00,46.9,37.3,30.16,SSW,209,0.0,0.0,69,0.00,,,0.00,Wunderground v.1.15,2013-01-06 17:10:00,
2013-01-06 12:15:00,47.1,37.4,30.15,South,189,0.0,0.0,69,0.00,,,0.00,Wunderground v.1.15,2013-01-06 17:15:00,
2013-01-06 12:20:00,47.3,37.6,30.15,South,189,0.0,0.0,69,0.00,,,0.00,Wunderground v.1.15,2013-01-06 17:20:00,
2013-01-06 12:25:00,47.6,37.9,30.15,South,189,0.0,0.0,69,0.00,,,0.00,Wunderground v.1.15,2013-01-06 17:25:00,
2013-01-06 12:30:00,48.0,37.6,30.15,South,189,0.0,0.0,67,0.00,,,0.00,Wunderground v.1.15,2013-01-06 17:30:00,
2013-01-06 12:40:00,48.3,37.5,30.14,South,182,0.0,0.0,66,0.00,,,0.00,Wunderground v.1.15,2013-01-06 17:40:00,
2013-01-06 12:45:00,48.5,37.3,30.14,South,182,0.0,0.0,65,0.00,,,0.00,Wunderground v.1.15,2013-01-06 17:45:00,
2013-01-06 12:50:00,48.7,37.5,30.13,SSW,207,0.0,0.0,65,0.00,,,0.00,Wunderground v.1.15,2013-01-06 17:50:00,
2013-01-06 13:00:00,49.1,37.0,30.13,WNW,285,0.0,0.0,63,0.00,,,0.00,Wunderground v.1.15,2013-01-06 18:00:00,
2013-01-06 13:05:00,49.3,37.6,30.12,WNW,285,0.0,0.0,64,0.00,,,0.00,Wunderground v.1.15,2013-01-06 18:05:00,
2013-01-06 13:10:00,49.6,36.7,30.12,WNW,285,0.0,0.0,61,0.00,,,0.00,Wunderground v.1.15,2013-01-06 18:10:00,
2013-01-06 13:15:00,49.7,36.4,30.12,SSE,163,0.0,0.0,60,0.00,,,0.00,Wunderground v.1.15,2013-01-06 18:15:00,
2013-01-06 13:20:00,50.1,37.2,30.11,SSE,163,0.0,0.0,61,0.00,,,0.00,Wunderground v.1.15,2013-01-06 18:20:00,
2013-01-06 13:25:00,50.5,37.1,30.11,SSE,163,0.0,0.0,60,0.00,,,0.00,Wunderground v.1.15,2013-01-06 18:25:00,
2013-01-06 13:30:00,50.8,37.4,30.11,NE,39,0.0,0.0,60,0.00,,,0.00,Wunderground v.1.15,2013-01-06 18:30:00,
2013-01-06 13:35:00,50.6,37.2,30.12,NNW,345,0.0,0.0,60,0.00,,,0.00,Wunderground v.1.15,2013-01-06 18:35:00,
2013-01-06 13:40:00,50.5,37.1,30.11,SSW,194,0.0,0.0,60,0.00,,,0.00,Wunderground v.1.15,2013-01-06 18:40:00,
2013-01-06 13:45:00,50.5,37.1,30.11,SSW,194,0.0,0.0,60,0.00,,,0.00,Wunderground v.1.15,2013-01-06 18:45:00,
2013-01-06 13:50:00,50.6,37.2,30.11,SSW,196,0.0,0.0,60,0.00,,,0.00,Wunderground v.1.15,2013-01-06 18:50:00,
2013-01-06 13:55:00,50.7,36.9,30.11,SSW,202,0.0,0.0,59,0.00,,,0.00,Wunderground v.1.15,2013-01-06 18:55:00,
2013-01-06 14:00:00,50.7,36.9,30.11,South,175,0.0,1.0,59,0.00,,,0.00,Wunderground v.1.15,2013-01-06 19:00:00,
2013-01-06 14:05:00,50.8,37.4,30.10,SSW,194,0.0,1.0,60,0.00,,,0.00,Wunderground v.1.15,2013-01-06 19:05:00,
2013-01-06 14:10:00,50.8,37.4,30.10,SSW,194,0.0,0.0,60,0.00,,,0.00,Wunderground v.1.15,2013-01-06 19:10:00,
2013-01-06 14:15:00,51.0,37.2,30.10,SW,218,0.0,0.0,59,0.00,,,0.00,Wunderground v.1.15,2013-01-06 19:15:00,
2013-01-06 14:20:00,50.8,37.0,30.09,WSW,246,1.0,1.0,59,0.00,,,0.00,Wunderground v.1.15,2013-01-06 19:20:00,
2013-01-06 14:25:00,50.8,37.0,30.09,WSW,248,0.0,1.0,59,0.00,,,0.00,Wunderground v.1.15,2013-01-06 19:25:00,
2013-01-06 14:30:00,50.7,37.3,30.09,WSW,248,0.0,0.0,60,0.00,,,0.00,Wunderground v.1.15,2013-01-06 19:30:00,
2013-01-06 14:35:00,50.9,37.9,30.08,WSW,248,0.0,0.0,61,0.00,,,0.00,Wunderground v.1.15,2013-01-06 19:35:00,
2013-01-06 14:40:00,51.1,37.3,30.08,WNW,298,0.0,2.0,59,0.00,,,0.00,Wunderground v.1.15,2013-01-06 19:40:00,
2013-01-06 14:50:00,51.1,37.3,30.08,West,260,0.0,0.0,59,0.00,,,0.00,Wunderground v.1.15,2013-01-06 19:50:00,
2013-01-06 14:55:00,51.1,37.3,30.08,ESE,122,0.0,0.0,59,0.00,,,0.00,Wunderground v.1.15,2013-01-06 19:55:00,
2013-01-06 15:00:00,51.3,37.0,30.08,SE,144,0.0,0.0,58,0.00,,,0.00,Wunderground v.1.15,2013-01-06 20:00:00,
2013-01-06 15:05:00,51.5,36.8,30.08,SSE,150,0.0,0.0,57,0.00,,,0.00,Wunderground v.1.15,2013-01-06 20:05:00,
2013-01-06 15:15:00,51.4,37.1,30.08,SSW,195,0.0,0.0,58,0.00,,,0.00,Wunderground v.1.15,2013-01-06 20:15:00,
2013-01-06 15:20:00,51.2,36.9,30.08,SW,227,0.0,1.0,58,0.00,,,0.00,Wunderground v.1.15,2013-01-06 20:20:00,
2013-01-06 15:25:00,51.1,37.7,30.08,SW,227,0.0,1.0,60,0.00,,,0.00,Wunderground v.1.15,2013-01-06 20:25:00,
2013-01-06 15:30:00,51.1,37.3,30.08,SW,227,0.0,0.0,59,0.00,,,0.00,Wunderground v.1.15,2013-01-06 20:30:00,
2013-01-06 15:35:00,51.2,37.8,30.08,SW,227,0.0,0.0,60,0.00,,,0.00,Wunderground v.1.15,2013-01-06 20:35:00,
2013-01-06 15:40:00,51.2,37.4,30.08,East,83,0.0,0.0,59,0.00,,,0.00,Wunderground v.1.15,2013-01-06 20:40:00,
2013-01-06 15:45:00,51.2,37.4,30.08,East,83,0.0,0.0,59,0.00,,,0.00,Wunderground v.1.15,2013-01-06 20:45:00,
2013-01-06 15:50:00,51.0,36.7,30.08,ESE,109,0.0,0.0,58,0.00,,,0.00,Wunderground v.1.15,2013-01-06 20:50:00,
2013-01-06 16:00:00,50.8,37.8,30.08,ESE,109,0.0,0.0,61,0.00,,,0.00,Wunderground v.1.15,2013-01-06 21:00:00,
2013-01-06 16:05:00,50.7,37.7,30.08,ESE,109,0.0,0.0,61,0.00,,,0.00,Wunderground v.1.15,2013-01-06 21:05:00,
2013-01-06 16:10:00,50.6,38.1,30.08,ESE,109,0.0,0.0,62,0.00,,,0.00,Wunderground v.1.15,2013-01-06 21:10:00,
2013-01-06 16:15:00,50.5,38.4,30.08,ESE,109,0.0,0.0,63,0.00,,,0.00,Wunderground v.1.15,2013-01-06 21:15:00,
2013-01-06 16:20:00,50.4,38.7,30.08,ESE,109,0.0,0.0,64,0.00,,,0.00,Wunderground v.1.15,2013-01-06 21:20:00,
2013-01-06 16:25:00,50.3,38.6,30.08,ESE,109,0.0,0.0,64,0.00,,,0.00,Wunderground v.1.15,2013-01-06 21:25:00,
2013-01-06 16:30:00,50.0,38.3,30.08,East,80,0.0,0.0,64,0.00,,,0.00,Wunderground v.1.15,2013-01-06 21:30:00,
2013-01-06 16:35:00,49.7,38.0,30.08,East,80,0.0,0.0,64,0.00,,,0.00,Wunderground v.1.15,2013-01-06 21:35:00,
2013-01-06 16:40:00,49.6,38.3,30.08,East,80,0.0,0.0,65,0.00,,,0.00,Wunderground v.1.15,2013-01-06 21:40:00,
2013-01-06 16:45:00,49.5,38.2,30.08,East,80,0.0,0.0,65,0.00,,,0.00,Wunderground v.1.15,2013-01-06 21:45:00,
2013-01-06 16:50:00,49.3,38.0,30.08,East,80,0.0,0.0,65,0.00,,,0.00,Wunderground v.1.15,2013-01-06 21:50:00,
2013-01-06 17:00:00,49.1,38.6,30.08,East,80,0.0,0.0,67,0.00,,,0.00,Wunderground v.1.15,2013-01-06 22:00:00,
2013-01-06 17:05:00,48.8,38.3,30.08,East,80,0.0,0.0,67,0.00,,,0.00,Wunderground v.1.15,2013-01-06 22:05:00,
2013-01-06 17:10:00,48.6,38.5,30.09,East,80,0.0,0.0,68,0.00,,,0.00,Wunderground v.1.15,2013-01-06 22:10:00,
2013-01-06 17:15:00,48.3,38.6,30.09,East,80,0.0,0.0,69,0.00,,,0.00,Wunderground v.1.15,2013-01-06 22:15:00,
2013-01-06 17:20:00,47.8,38.5,30.08,East,80,0.0,0.0,70,0.00,,,0.00,Wunderground v.1.15,2013-01-06 22:20:00,
2013-01-06 17:25:00,47.4,38.1,30.09,East,80,0.0,0.0,70,0.00,,,0.00,Wunderground v.1.15,2013-01-06 22:25:00,
2013-01-06 17:30:00,47.1,38.2,30.09,East,80,0.0,0.0,71,0.00,,,0.00,Wunderground v.1.15,2013-01-06 22:30:00,
2013-01-06 17:35:00,46.9,38.3,30.09,East,80,0.0,0.0,72,0.00,,,0.00,Wunderground v.1.15,2013-01-06 22:35:00,
2013-01-06 17:40:00,46.5,38.3,30.09,East,80,0.0,0.0,73,0.00,,,0.00,Wunderground v.1.15,2013-01-06 22:40:00,
2013-01-06 17:45:00,46.1,37.9,30.10,East,80,0.0,0.0,73,0.00,,,0.00,Wunderground v.1.15,2013-01-06 22:45:00,
2013-01-06 17:50:00,45.6,37.8,30.09,East,80,0.0,0.0,74,0.00,,,0.00,Wunderground v.1.15,2013-01-06 22:50:00,
2013-01-06 17:55:00,45.3,37.8,30.10,East,80,0.0,0.0,75,0.00,,,0.00,Wunderground v.1.15,2013-01-06 22:55:00,
2013-01-06 18:00:00,44.8,37.4,30.10,East,80,0.0,0.0,75,0.00,,,0.00,Wunderground v.1.15,2013-01-06 23:00:00,
2013-01-06 18:05:00,44.5,37.4,30.10,East,80,0.0,0.0,76,0.00,,,0.00,Wunderground v.1.15,2013-01-06 23:05:00,
2013-01-06 18:10:00,44.2,37.1,30.10,East,80,0.0,0.0,76,0.00,,,0.00,Wunderground v.1.15,2013-01-06 23:10:00,
2013-01-06 18:15:00,43.8,37.1,30.10,East,80,0.0,0.0,77,0.00,,,0.00,Wunderground v.1.15,2013-01-06 23:15:00,
2013-01-06 18:20:00,43.6,37.2,30.11,East,80,0.0,0.0,78,0.00,,,0.00,Wunderground v.1.15,2013-01-06 23:20:00,
2013-01-06 18:25:00,43.2,36.8,30.10,East,80,0.0,0.0,78,0.00,,,0.00,Wunderground v.1.15,2013-01-06 23:25:00,
2013-01-06 18:30:00,42.8,36.7,30.11,East,80,0.0,0.0,79,0.00,,,0.00,Wunderground v.1.15,2013-01-06 23:30:00,
2013-01-06 18:40:00,42.2,36.5,30.11,East,80,0.0,0.0,80,0.00,,,0.00,Wunderground v.1.15,2013-01-06 23:40:00,
2013-01-06 18:45:00,41.9,36.5,30.11,East,80,0.0,0.0,81,0.00,,,0.00,Wunderground v.1.15,2013-01-06 23:45:00,
2013-01-06 18:50:00,41.6,36.2,30.12,East,80,0.0,0.0,81,0.00,,,0.00,Wunderground v.1.15,2013-01-06 23:50:00,
2013-01-06 19:00:00,41.0,35.9,30.12,East,80,0.0,0.0,82,0.00,,,0.00,Wunderground v.1.15,2013-01-07 00:00:00,
2013-01-06 19:05:00,40.7,35.9,30.12,East,80,0.0,0.0,83,0.00,,,0.00,Wunderground v.1.15,2013-01-07 00:05:00,
2013-01-06 19:10:00,40.4,35.9,30.12,East,80,0.0,0.0,84,0.00,,,0.00,Wunderground v.1.15,2013-01-07 00:10:00,
2013-01-06 19:15:00,40.2,35.8,30.13,East,80,0.0,0.0,84,0.00,,,0.00,Wunderground v.1.15,2013-01-07 00:15:00,
2013-01-06 19:20:00,40.0,35.6,30.13,East,80,0.0,0.0,84,0.00,,,0.00,Wunderground v.1.15,2013-01-07 00:20:00,
2013-01-06 19:25:00,39.8,35.4,30.13,East,80,0.0,0.0,84,0.00,,,0.00,Wunderground v.1.15,2013-01-07 00:25:00,
2013-01-06 19:30:00,39.6,35.2,30.14,East,80,0.0,0.0,84,0.00,,,0.00,Wunderground v.1.15,2013-01-07 00:30:00,
2013-01-06 19:40:00,39.3,35.2,30.14,East,80,0.0,0.0,85,0.00,,,0.00,Wunderground v.1.15,2013-01-07 00:40:00,
2013-01-06 19:45:00,39.2,35.1,30.14,East,80,0.0,0.0,85,0.00,,,0.00,Wunderground v.1.15,2013-01-07 00:45:00,
2013-01-06 19:50:00,39.0,34.9,30.15,East,80,0.0,0.0,85,0.00,,,0.00,Wunderground v.1.15,2013-01-07 00:50:00,
2013-01-06 19:55:00,39.0,35.2,30.15,East,80,0.0,0.0,86,0.00,,,0.00,Wunderground v.1.15,2013-01-07 00:55:00,
2013-01-06 20:00:00,39.0,35.5,30.16,East,80,0.0,0.0,87,0.00,,,0.00,Wunderground v.1.15,2013-01-07 01:00:00,
2013-01-06 20:10:00,39.3,36.0,30.16,East,80,0.0,0.0,88,0.00,,,0.00,Wunderground v.1.15,2013-01-07 01:10:00,
2013-01-06 20:20:00,39.8,36.5,30.16,East,80,0.0,0.0,88,0.00,,,0.00,Wunderground v.1.15,2013-01-07 01:20:00,
2013-01-06 20:25:00,40.0,36.4,30.16,East,80,0.0,0.0,87,0.00,,,0.00,Wunderground v.1.15,2013-01-07 01:25:00,
2013-01-06 20:30:00,40.2,36.6,30.16,East,80,0.0,0.0,87,0.00,,,0.00,Wunderground v.1.15,2013-01-07 01:30:00,
2013-01-06 20:35:00,40.3,36.7,30.17,East,80,0.0,0.0,87,0.00,,,0.00,Wunderground v.1.15,2013-01-07 01:35:00,
2013-01-06 20:40:00,40.4,36.8,30.17,East,80,0.0,0.0,87,0.00,,,0.00,Wunderground v.1.15,2013-01-07 01:40:00,
2013-01-06 20:45:00,40.8,36.9,30.17,North,5,0.0,0.0,86,0.00,,,0.00,Wunderground v.1.15,2013-01-07 01:45:00,
2013-01-06 20:50:00,41.3,36.8,30.17,WSW,248,0.0,0.0,84,0.00,,,0.00,Wunderground v.1.15,2013-01-07 01:50:00,
2013-01-06 21:00:00,42.8,36.1,30.17,West,262,0.0,2.0,77,0.00,,,0.00,Wunderground v.1.15,2013-01-07 02:00:00,
2013-01-06 21:05:00,43.6,35.9,30.17,North,5,0.0,2.0,74,0.00,,,0.00,Wunderground v.1.15,2013-01-07 02:05:00,
2013-01-06 21:10:00,44.0,35.6,30.17,NW,311,0.0,0.0,72,0.00,,,0.00,Wunderground v.1.15,2013-01-07 02:10:00,
2013-01-06 21:15:00,44.2,35.4,30.17,NW,311,0.0,0.0,71,0.00,,,0.00,Wunderground v.1.15,2013-01-07 02:15:00,
2013-01-06 21:20:00,44.2,35.7,30.17,NW,311,0.0,0.0,72,0.00,,,0.00,Wunderground v.1.15,2013-01-07 02:20:00,
2013-01-06 21:30:00,44.1,35.3,30.17,SW,219,0.0,0.0,71,0.00,,,0.00,Wunderground v.1.15,2013-01-07 02:30:00,
2013-01-06 21:35:00,44.1,35.3,30.17,SW,219,0.0,0.0,71,0.00,,,0.00,Wunderground v.1.15,2013-01-07 02:35:00,
2013-01-06 21:40:00,44.0,34.8,30.17,SW,219,0.0,0.0,70,0.00,,,0.00,Wunderground v.1.15,2013-01-07 02:40:00,
2013-01-06 21:45:00,43.9,34.7,30.17,SW,219,0.0,0.0,70,0.00,,,0.00,Wunderground v.1.15,2013-01-07 02:45:00,
2013-01-06 21:50:00,43.8,35.0,30.18,SW,219,0.0,0.0,71,0.00,,,0.00,Wunderground v.1.15,2013-01-07 02:50:00,
2013-01-06 21:55:00,43.7,34.6,30.18,SW,219,0.0,0.0,70,0.00,,,0.00,Wunderground v.1.15,2013-01-07 02:55:00,
2013-01-06 22:00:00,43.6,34.5,30.18,SW,219,0.0,0.0,70,0.00,,,0.00,Wunderground v.1.15,2013-01-07 03:00:00,
2013-01-06 22:05:00,43.6,34.5,30.18,SW,219,0.0,0.0,70,0.00,,,0.00,Wunderground v.1.15,2013-01-07 03:05:00,
2013-01-06 22:10:00,43.5,34.4,30.18,SW,219,0.0,0.0,70,0.00,,,0.00,Wunderground v.1.15,2013-01-07 03:10:00,
2013-01-06 22:15:00,43.5,34.4,30.18,SW,219,0.0,0.0,70,0.00,,,0.00,Wunderground v.1.15,2013-01-07 03:15:00,
2013-01-06 22:20:00,43.4,34.6,30.18,SW,219,0.0,0.0,71,0.00,,,0.00,Wunderground v.1.15,2013-01-07 03:20:00,
2013-01-06 22:25:00,43.3,34.5,30.19,SW,219,0.0,0.0,71,0.00,,,0.00,Wunderground v.1.15,2013-01-07 03:25:00,
2013-01-06 22:30:00,43.2,35.1,30.19,SW,219,0.0,0.0,73,0.00,,,0.00,Wunderground v.1.15,2013-01-07 03:30:00,
2013-01-06 22:35:00,43.0,34.2,30.19,SW,219,0.0,0.0,71,0.00,,,0.00,Wunderground v.1.15,2013-01-07 03:35:00,
2013-01-06 22:40:00,42.8,34.0,30.19,SW,219,0.0,0.0,71,0.00,,,0.00,Wunderground v.1.15,2013-01-07 03:40:00,
2013-01-06 22:45:00,42.7,33.9,30.19,SW,219,0.0,0.0,71,0.00,,,0.00,Wunderground v.1.15,2013-01-07 03:45:00,
2013-01-06 22:50:00,42.6,33.9,30.19,SW,219,0.0,0.0,71,0.00,,,0.00,Wunderground v.1.15,2013-01-07 03:50:00,
2013-01-06 23:00:00,42.4,34.0,30.20,SW,219,0.0,0.0,72,0.00,,,0.00,Wunderground v.1.15,2013-01-07 04:00:00,
2013-01-06 23:05:00,42.3,33.6,30.20,SW,219,0.0,0.0,71,0.00,,,0.00,Wunderground v.1.15,2013-01-07 04:05:00,
2013-01-06 23:10:00,42.2,33.5,30.20,SW,219,0.0,0.0,71,0.00,,,0.00,Wunderground v.1.15,2013-01-07 04:10:00,
2013-01-06 23:15:00,42.1,33.7,30.20,SW,219,0.0,0.0,72,0.00,,,0.00,Wunderground v.1.15,2013-01-07 04:15:00,
2013-01-06 23:20:00,42.0,33.6,30.20,SW,219,0.0,0.0,72,0.00,,,0.00,Wunderground v.1.15,2013-01-07 04:20:00,
2013-01-06 23:30:00,41.6,33.9,30.20,SW,219,0.0,0.0,74,0.00,,,0.00,Wunderground v.1.15,2013-01-07 04:30:00,
2013-01-06 23:35:00,41.5,33.8,30.20,SW,219,0.0,0.0,74,0.00,,,0.00,Wunderground v.1.15,2013-01-07 04:35:00,
2013-01-06 23:40:00,41.4,34.4,30.21,SW,219,0.0,0.0,76,0.00,,,0.00,Wunderground v.1.15,2013-01-07 04:40:00,
2013-01-06 23:50:00,41.1,34.8,30.21,SW,219,0.0,0.0,78,0.00,,,0.00,Wunderground v.1.15,2013-01-07 04:50:00,
2013-01-06 23:55:00,40.9,33.6,30.21,SW,219,0.0,0.0,75,0.00,,,0.00,Wunderground v.1.15,2013-01-07 04:55:00,